Showing default

WILDFIRE 10, 57766

Orbit data source: Space-Track

WILDFIRE 10, 57766 is a payload satellite owned by SDA (US) in LEO that was launched on Sat, 02 Sep 2023 UTC via an FALCON 9 launch vehicle from the Air Force Western Test Range (AFWTR). Payload-class satellites include a variety of spacecraft equipped with specific instruments for various scientific and technological missions. These include communications satellites like Starlink; space stations such as the ISS; scientific satellites like the Hubble; Earth observation satellites from companies like Planet Labs, Umbra, and HawkEye 360; GPS; miniature CubeSats for education and research; and military/defense satellites.

Loading next visibility...
Identifier
57766, 2023-133K
Orbit
LEO
Country
Flag of USUS
Related business
Manufacturer
TYVAK/LMSSD
Mission
Operational Defense Communications
Bus & Motor
MAVERICKS, Unknown motor
Mass
~300 kg wet, ~300 kg dry
Launch date (UTC)
2023-09-02 (3 years ago)
Launch vehicle
FALCON 9
Launch site
Air Force Western Test Range (AFWTR)
Object type
Payload
Rocket body
Debris
Shape & HBR
Box + 2 Pan, 1.3 m
Radar Cross Section
0.713 m², Large (>1 m²)

Expand to show TLE details & history
Last TLE update: 2 days ago

TLE from 2 days ago
0 WILDFIRE 10
1 57766U 23133K   26171.29547204 -.00000022  00000-0 -28723-4 0  9995
2 57766  81.0018   4.4987 0006478   3.8647 356.2558 13.85605168141470
Epoch: 2026-06-20T07:05Z
TLE epoch observation values (Epoch: 2026-06-20T07:05:28.784Z)
Latitude
-0.00004°
Longitude
-10.38338°
Altitude
942.197 km
Speed
7.383 km/s
True Right ascension
00h 17m 59s
True Declination
0° 00' 00"
Sunlit
Object was in daylight at epoch
Visualization orbit readout
Latitude
Unknown
Longitude
Unknown
Altitude
Unknown
Speed
Unknown
Apparent Right ascension
Unknown
Apparent Declination
Unknown
Sunlit
N/A
Visualization observer readout
Local Sidereal Time
00:50:16
Azimuth
Unknown
Elevation
Unknown
Doppler factor
Unknown
Orbital elements
Apogee altitude
946.033 km
Perigee altitude
936.55 km
Semi-major axis
7,319.429 km
Eccentricity
0.00065
Inclination
81.0018°
RAAN
4.4987°
Arg. of periapsis
3.8647°
True anomaly
356.25095°
Mean anomaly
356.2558°
Eccentric anomaly
356.25337°
Mean motion
3.46599 °/min
Orbital period
103.87 mins
BSTAR
-0.000028723
Loading maneuver chart data...
Computing Atmospheric mass density...
Loading historical data...
Loading historical data...
Loading historical data...
Loading historical data...
Loading historical data...
Loading historical data...
Loading historical data...

Documentation

Showing up to 5 results
|